EUTELSAT 172B (42741 NORAD) Tracking and Keplerian Element Data

This shows tracking and keplerian element data for the satellite.

Feedback or suggestion? Click here.




ElementValue
Catalog42741
NameEUTELSAT 172B
Epoch Orbit749
Epoch Day109.80483817
Epoch Year2019
RAAN123.3146
Inclination0.0244
Eccentricity1.23E-05
Argument of Perigee333.4576
Mean Anonmoly212.5738
Mean Motion1.00272163
Decay Rate-2.5E-07
L11 42741U 17029B 19109.80483817 -.00000025 00000-0 00000-0 0 9994
L22 42741 0.0244 123.3146 0000123 333.4576 212.5738 1.00272163 7497

Live tracking and technical data element details for EUTELSAT 172B (NORAD 42741). EUTELSAT 172B can be tracked NOW for your location showing map with azimuth and elevation plus other details from your city location.

Track the satellite on the map from your city or location and see movement details for azimuth, elevation, latitude, longitude, range, height, and movement on the map or in text.







IsCatalogInMostPopularTable: catalog: 42741, numindb: 235
Update: records affected: 1



GetName: 42741 EUTELSAT 172B

Hit Count: updated at: Sat, 20 Apr 2019 20:31:50 GMT